sat.trackr.live / text

‹ back to catalog

STARLINK-33939

NORAD 63702 · 2025-087F

PAYLOAD ACTIVE UNKNOWN

§ Identity

Operator
Country
US
Launch date
2025-04-28
Launch site
AFWTR
Launch vehicle
Mass (kg)
RCS (m²)

Purposes: comms

External: N2YO · Heavens-Above · Gunter

§ Orbital elements

Epoch: 2026-05-25T04:24:15.009120Z

Period
94.01 min
Inclination
53.1573°
Eccentricity
0.0001238
Mean motion
15.31718449 rev/d
Perigee alt
469.8 km
Apogee alt
471.5 km
Semi-major
6,848.8 km
B*
7.1546e-4
RAAN
224.0776°
Arg perigee
82.4095°
Mean anomaly
277.7047°
Rev number
6,091

§ Raw data

STARLINK-339391 63702U 25087F   26145.18350705  .00021915  00000+0  71546-3 0  99902 63702  53.1573 224.0776 0001238  82.4095 277.7047 15.31718449 60917

JSON: /api/v1/satellites/63702 · /tle

For live sub-satellite position, see the globe view (requires WebGL).

§ Visibility from observer

Set your observer location to see the next 7 days of passes ≥ 10°. The values pass through the URL so the page stays shareable.

No JS? Fill the form by hand. The geolocation button needs JavaScript.